Regional Weather Roundup
Issued by NWS

Home | Current Version | Previous Version | Text Only | Print | Product List | Glossary Off
Versions: 1 2 3 4 5 6 7 8 9 10 11 12 13 14 15 16 17 18 19 20 21 22 23 24 25 26 27 28 29 30 31 32 33 34 35 36 37 38 39 40 41 42 43 44 45 46 47 48 49 50

000
ASUS43 KFSD 021510
RWRSD

WEATHER ROUNDUP FOR SOUTH DAKOTA
NATIONAL WEATHER SERVICE SIOUX FALLS SD
1000 AM CDT THU JUL 02 2015

NOTE: "FAIR" INDICATES FEW OR NO CLOUDS BELOW 12,000 FEET WITH NO
SIGNIFICANT WEATHER AND/OR OBSTRUCTIONS TO VISIBILITY.


SDZ001>005-009-010-012>017-021600-
NORTHWEST AND NORTH CENTRAL SOUTH DAKOTA

CITY           SKY/WX    TMP DP  RH WIND       PRES   REMARKS
BUFFALO          N/A     70  60  70 NW13      30.03R
FAITH            N/A     70  62  76 N10       30.05R
MOBRIDGE       PTSUNNY   67  65  93 CALM      29.98R
$$

SDZ012>016-024>037-041>051-057-063-072>074-021600-
SOUTHWEST AND SOUTH CENTRAL SOUTH DAKOTA

CITY           SKY/WX    TMP DP  RH WIND       PRES   REMARKS
RAPID CTY ARPT MOSUNNY   72  61  68 NW20      30.08R
PIERRE         PTSUNNY   63  62  97 SW7       29.99F
CUSTER         SUNNY     68  51  54 VRB6      30.21R
ELLSWORTH AFB  MOSUNNY   72  62  71 NW17G24   30.09R
PHILIP         MOSUNNY   74  64  71 N15G24    30.02R
PINE RIDGE     PTSUNNY   69  62  78 NW8       30.09R
SPEARFISH      FAIR      68  63  83 NW12      30.16R
WINNER         PTSUNNY   68  61  78 E3        29.99R
$$

SDZ004>011-016>023-039-040-021600-
NORTHEAST SOUTH DAKOTA

CITY           SKY/WX    TMP DP  RH WIND       PRES   REMARKS
ABERDEEN       RAIN      60  58  92 VRB3      29.99F FOG
WATERTOWN      PTSUNNY   67  50  54 SE9       30.00R
BROOKINGS      CLOUDY    61  50  67 SE6       30.02S
SISSETON         N/A     67  53  61 S9        30.00R
$$

SDZ017-020-022-023-036>040-048>070-021600-
SOUTHEAST SOUTH DAKOTA

CITY           SKY/WX    TMP DP  RH WIND       PRES   REMARKS
SIOUX FALLS    CLOUDY    65  56  72 E5        30.00R
HURON          CLOUDY    62  56  80 SE8       29.98S
MITCHELL       CLOUDY    62  59  90 SE9       29.98R
YANKTON        CLOUDY    59  55  88 CALM      29.97R
$$

ABBREVIATIONS USED IN REMARKS
   TC - TEMPERATURE IN CELSIUS
  WCI - WIND CHILL INDEX
   HX - HEAT INDEX
  VSB - VISIBILITY



USA.gov is the U.S. government's official web portal to all federal, state and local government web resources and services.